Regional Weather Roundup
Issued by NWS

Home | Current Version | Previous Version | Graphics & Text | Print | Product List | Glossary On
Versions: 1 2 3 4 5 6 7 8 9 10 11 12 13 14 15 16 17 18 19 20 21 22 23 24 25 26 27 28 29 30 31 32 33 34 35 36 37 38 39 40 41 42 43 44 45 46 47 48 49 50
000
ASUS45 KCYS 201410
RWRWY

WYOMING REGIONAL WEATHER ROUNDUP
NATIONAL WEATHER SERVICE CHEYENNE WY
800 AM MDT WED SEP 20 2017

NOTE:  "FAIR" INDICATES FEW OR NO CLOUDS BELOW 12,000 FEET
WITH NO SIGNIFICANT WEATHER AND/OR OBSTRUCTIONS TO VISIBILITY.

WYZ001-201500-
YELLOWSTONE NATIONAL PARK

CITY           SKY/WX    TMP DP  RH WIND       PRES   REMARKS
LK YELLOWSTONE NOT AVBL
W YELLOWSTONE  NOT AVBL

$$
WYZ002>013-054>058-071-098>099-201500-
NORTHERN WYOMING

CITY           SKY/WX    TMP DP  RH WIND       PRES   REMARKS
JACKSON        CLOUDY    36  29  75 SW8       29.92S WCI  30
CODY           FAIR      43  28  55 W9G17     29.82R
GREYBULL       FAIR      39  36  89 SE3       29.83R
WORLAND        FAIR      39  33  79 S10       29.82S WCI  32
SHERIDAN       FAIR      52  24  33 SW10      29.75S
BUFFALO        FAIR      45  25  45 S12       29.81R
GILLETTE       FAIR      45  28  51 SW22G37   29.80R
HULETT         FAIR      43  32  65 S14       29.83R
NEWCASTLE      FAIR      39  32  75 SE6       29.89R WCI  35

$$
WYZ014>020-022>026-101>103-201500-
CENTRAL WYOMING

CITY           SKY/WX    TMP DP  RH WIND       PRES   REMARKS
BIG PINEY      FAIR      29  26  89 CALM      29.98S
PINEDALE       CLOUDY    30  28  93 SE3       30.00S
DUBOIS         CLOUDY    34  27  75 NW8       29.89R WCI  27
LANDER           N/A    N/A N/A N/A MISG      29.90R
RIVERTON       FAIR      40  25  55 S7        29.90R
CASPER         FAIR      42  27  55 SW21      29.92S
DOUGLAS        FAIR      45  23  42 N3        29.91S

$$
WYZ021-027>030-104>119-201500-
SOUTHERN WYOMING

CITY           SKY/WX    TMP DP  RH WIND       PRES   REMARKS
EVANSTON       FAIR      32  29  88 S8        30.00S WCI  25
KEMMERER         N/A     32  28  86 SE6       30.00S WCI  26
FORT BRIDGER   FAIR      37  28  71 SW9       30.04R WCI  30
ROCK SPRINGS   FAIR      36  29  75 S7        30.02R WCI  30
DIXON          CLOUDY    40  34  81 NE6       30.06R
RAWLINS        FAIR      38  30  73 CALM      30.01R
SARATOGA       FAIR      37  32  81 SE10      30.03S WCI  30
LARAMIE        CLOUDY    40  28  62 S10       30.00S WCI  33
CHEYENNE       FAIR      45  29  53 SW12      30.00R
TORRINGTON     FAIR      51  29  42 VRB5      29.93R
PINE BLUFFS    CLOUDY    48  32  53 SW6       29.99R

$$



USA.gov is the U.S. government's official web portal to all federal, state and local government web resources and services.